Theta_e
335 334 332 333 331 331 331 331 331 331 330 330 330 331 332 331 330 330 330 329 328 327 326 326 326 326 326 328 332 334 339 337
326 326 328 329 327 328 328 328 327 326 325 324 325 327 327 326 327 327 327 326 326 324 323 321 321 321 321 321 323 326 330 332
321 321 324 327 327 325 325 325 323 321 321 320 320 322 323 324 323 323 323 322 322 320 319 317 316 317 317 318 321 322 324 325
319 320 323 325 319 319 320 319 318 318 318 319 320 320 319 319 318 318 318 317 317 315 314 314 315 316 316 317 318 319 320 321
317 319 322 320 317 316 316 316 316 316 318 317 317 316 316 315 315 315 315 313 313 312 312 312 313 313 313 314 315 315 316 318
317 317 317 318 317 316 316 314 314 314 316 317 315 313 313 312 311 312 311 311 310 310 310 310 310 310 311 311 312 312 314 316
315 316 316 316 316 316 316 314 313 314 314 315 314 312 310 309 309 309 309 309 308 308 307 307 307 308 309 309 310 313 314 316
315 315 315 316 316 316 314 313 313 313 313 312 312 310 308 307 306 306 306 306 305 306 306 305 305 306 306 308 311 312 314 315
313 314 315 315 316 314 313 312 312 311 311 311 310 309 308 306 304 304 304 305 305 306 305 305 305 305 306 308 311 311 312 312
313 313 313 314 315 313 312 311 311 310 310 309 309 308 307 306 304 304 304 304 305 304 304 304 304 304 305 308 308 309 311 309
312 313 312 313 314 312 311 311 310 309 309 308 308 307 306 305 303 303 303 303 303 303 303 303 302 303 304 307 306 306 307 306
313 312 311 312 311 310 309 309 308 308 307 306 306 305 304 303 302 302 302 301 301 302 302 302 301 302 303 305 305 305 306 305
311 310 309 310 309 307 306 305 306 306 306 306 305 303 303 302 301 301 301 300 300 300 300 301 300 301 304 303 306 308 304 303
310 310 309 310 309 309 307 306 306 306 305 304 303 302 302 301 300 299 300 299 299 299 300 299 299 300 298 301 299 301 303 303
309 309 308 309 309 307 305 305 304 302 302 301 301 301 300 300 299 299 298 299 297 298 298 298 296 297 298 297 296 294 295 302
310 308 307 306 307 306 304 303 301 301 301 300 299 299 298 298 298 298 297 297 297 296 296 296 296 293 296 296 296 295 293 292
308 307 306 305 307 306 305 303 301 300 299 298 298 297 297 297 297 296 296 296 295 295 295 294 292 292 292 293 293 295 293 290
307 305 304 303 305 304 304 301 300 297 297 296 295 296 295 295 295 294 294 294 294 292 291 290 289 289 290 290 289 289 288 288
304 303 301 302 302 302 302 300 298 297 296 295 294 293 293 293 293 292 292 293 292 290 289 288 288 288 288 288 289 289 289 287
302 301 299 300 300 299 300 299 298 298 297 295 293 292 293 293 292 291 292 291 290 288 287 287 288 288 287 287 288 289 288 288
Wind_Speed
9 10 12 13 12 12 12 12 12 13 14 14 15 14 14 15 15 15 14 14 14 14 14 14 14 15 15 13 10 10 5 4
10 9 10 10 10 13 13 14 14 14 15 15 14 15 15 15 12 15 15 14 14 14 14 13 13 14 14 12 9 7 8 7
8 9 9 10 10 11 13 14 15 15 13 13 11 7 9 12 13 15 14 14 13 13 13 13 10 10 13 11 7 5 6 5
10 9 10 9 7 8 8 8 7 9 9 8 7 8 8 10 12 14 15 12 13 13 13 11 9 6 5 6 5 5 4 4
10 10 9 10 8 6 4 4 5 6 9 9 8 6 6 5 4 5 5 9 6 7 7 6 8 6 5 5 6 5 4 4
11 10 9 9 7 6 6 6 6 6 7 8 7 5 6 6 5 5 6 5 5 6 5 6 7 8 7 6 7 5 4 4
13 12 11 10 10 7 6 7 6 7 6 6 6 7 6 5 5 5 5 4 5 4 5 6 6 7 7 7 8 8 7 5
14 13 12 12 10 10 8 7 8 7 7 7 8 7 6 6 6 6 5 5 5 4 5 5 5 5 6 7 7 7 9 8
15 14 13 13 13 10 8 7 8 7 7 8 9 8 8 7 6 6 5 4 5 5 5 5 5 5 7 7 7 8 8 9
15 12 14 14 13 10 8 8 7 8 7 7 9 9 8 7 6 6 5 5 5 5 6 6 5 5 5 6 6 7 9 10
17 15 15 14 13 10 9 10 8 7 7 7 9 9 8 7 6 6 5 6 6 6 7 7 6 5 5 6 6 7 7 8
17 14 16 15 11 10 8 8 8 7 8 8 9 8 9 7 6 7 6 6 6 6 7 7 8 5 4 5 5 6 6 7
19 18 17 14 12 12 10 9 8 8 8 11 10 8 8 8 6 6 6 7 7 6 5 8 8 7 0 4 4 2 7 5
20 20 19 15 12 10 8 11 8 8 8 9 9 9 8 8 7 7 7 6 8 9 8 4 6 9 4 1 1 4 1 3
21 20 20 16 16 12 11 10 10 8 8 8 8 10 9 9 9 8 8 7 7 8 8 9 5 7 11 4 1 2 5 2
18 18 19 16 18 15 19 12 12 8 8 8 8 9 10 10 10 9 8 7 8 8 8 8 6 6 3 6 6 4 3 4
16 18 18 17 17 16 14 14 9 10 9 12 10 9 10 10 10 9 9 7 9 9 9 9 7 6 5 4 4 3 5 3
16 18 17 17 16 17 17 18 16 13 12 10 8 7 8 9 10 9 9 8 9 8 9 9 7 6 5 5 4 3 4 4
16 18 16 16 15 14 16 18 17 16 14 10 11 8 7 9 9 9 8 10 10 8 8 8 7 7 7 4 4 4 3 2
17 16 16 15 15 15 13 16 10 11 10 10 8 7 8 10 9 10 10 11 9 8 5 5 6 7 9 6 4 4 3 4
Wind_Direction
137 134 126 115 111 101 96 97 97 94 90 86 83 81 76 78 78 79 74 69 63 57 54 53 53 48 36 19 23 27 15 15
134 132 131 126 113 103 105 105 102 98 93 89 84 79 79 72 71 68 67 64 61 55 49 49 49 46 37 33 23 26 11 0
138 135 131 125 116 109 109 107 102 94 90 90 90 85 81 79 67 68 65 62 56 52 49 41 42 47 37 27 26 28 14 11
152 144 139 128 112 107 102 99 90 100 101 89 88 87 79 81 75 68 63 51 52 47 37 38 31 30 25 15 22 11 19 7
159 151 145 136 126 123 115 104 96 88 92 105 97 90 77 71 73 59 59 50 34 36 31 33 35 29 34 27 18 15 12 12
158 155 145 137 130 122 121 113 111 104 104 106 103 97 89 82 72 65 56 47 42 40 43 30 37 40 30 33 28 27 19 32
166 158 151 143 133 130 120 113 102 103 95 89 102 102 94 89 82 77 69 64 56 50 48 37 35 37 45 32 31 29 32 39
164 160 153 147 141 138 127 118 114 110 109 100 88 90 91 87 79 70 63 47 49 46 45 45 42 37 58 50 52 56 53 53
166 158 153 150 144 136 129 125 118 110 105 103 102 97 97 95 86 78 66 52 53 51 52 48 46 53 47 67 77 73 74 65
162 157 157 151 145 140 133 128 119 115 113 108 103 101 103 98 89 71 57 63 45 44 31 41 41 42 58 67 72 71 74 65
163 161 158 150 144 136 132 129 122 118 116 111 103 98 90 85 84 78 64 58 49 34 37 25 30 39 73 97 81 75 68 62
163 162 155 149 141 133 129 124 121 123 117 109 108 99 95 92 86 82 73 68 59 52 45 41 26 24 82 96 110 77 70 62
169 161 159 153 153 150 145 139 133 123 118 117 112 105 93 91 84 78 71 68 63 51 61 50 42 23 126 111 130 107 61 63
173 168 165 165 160 157 150 143 133 125 120 113 109 104 100 96 92 77 66 74 61 52 48 50 51 31 30 349 140 161 21 65
176 169 167 166 160 145 130 125 129 134 132 121 108 103 95 85 79 77 76 69 65 61 54 50 56 51 39 21 359 18 334 4
173 170 169 163 162 157 157 155 152 146 136 124 113 104 100 95 91 84 75 71 73 67 59 60 55 50 51 41 35 22 352 311
165 165 169 163 165 161 159 154 137 138 133 127 118 109 102 93 88 84 81 80 74 71 69 62 57 60 51 22 37 84 44 323
167 166 164 162 162 163 161 151 147 146 144 138 131 124 114 104 100 90 86 87 81 73 66 63 72 71 65 58 54 38 30 11
165 164 160 160 159 160 159 151 149 148 148 143 139 136 127 119 113 108 102 98 87 74 66 63 66 73 61 61 60 62 57 22
163 161 153 153 149 143 145 143 144 143 143 142 136 137 128 123 114 104 101 97 89 79 74 74 75 72 67 53 64 54 30 10